Date String (YYYY-MM-DD hh:mm:ss) UTC,Instrument flags,Ambient pressure (hPa),Sample flow (lpm),Bypass flow (lpm),Sample temperature (°C),Ambient temperature (°C),ASC tube jacket temperature (°C),LED temperature (°C),Box temperature (°C),Sample RH (%),Span deviation,Mass concentration (μg/m³),Mass concentration (μg/m³),Mass concentration (μg/m³)
DateTimeUTC,F1_M11,P_M11,Q1_M11,Q2_M11,T1_M11,T2_M11,T3_M11,T4_M11,T5_M11,U1_M11,ZSPAN_M11,X0_M11,X2_M11,X1_M11
2022-12-15 08:00:00,,0819.4,4.97,0.00,22.2,21.4,00.0,31.0,24.1,06.4,0000.0,0005.93,0002.49,0002.08
2022-12-15 08:01:00,,0819.4,5.01,0.00,22.2,21.2,00.0,31.0,24.0,06.3,0000.0,0006.47,0002.51,0002.06
2022-12-15 08:02:00,,0819.4,5.01,0.00,22.2,21.0,00.0,31.0,24.0,06.3,0000.0,0006.73,0002.44,0002.01
2022-12-15 08:03:00,,0819.4,5.01,0.00,22.2,21.0,00.0,31.0,24.0,06.4,0000.0,0006.11,0002.42,0002.02
2022-12-15 08:04:00,,0819.5,5.00,0.00,22.2,20.9,00.0,31.0,23.9,06.3,0000.0,0005.94,0002.41,0002.04
2022-12-15 08:05:00,,0819.5,5.00,0.00,22.2,20.9,00.0,31.0,23.9,06.1,0000.0,0005.74,0002.37,0002.04
2022-12-15 08:06:00,,0819.5,5.00,0.00,22.1,20.8,00.0,31.0,23.9,06.1,0000.0,0004.40,0002.33,0002.01
2022-12-15 08:07:00,,0819.5,5.00,0.00,22.1,20.8,00.0,31.0,23.9,06.1,0000.0,0004.16,0002.26,0001.97
2022-12-15 08:08:00,,0819.5,5.00,0.00,22.1,20.8,00.0,31.0,23.9,05.9,0000.0,0004.06,0002.19,0001.92
2022-12-15 08:09:00,,0819.5,5.00,0.00,22.1,20.7,00.0,31.0,23.9,06.0,0000.0,0004.04,0002.20,0001.91
2022-12-15 08:10:00,,0819.5,5.00,0.00,22.1,20.5,00.0,31.0,23.8,05.8,0000.0,0003.85,0002.17,0001.90
2022-12-15 08:11:00,,0819.5,5.00,0.00,22.0,20.4,00.0,31.0,23.8,05.8,0000.0,0003.77,0002.12,0001.84
2022-12-15 08:12:00,,0819.5,4.99,0.00,22.0,20.3,00.0,30.9,23.7,05.8,0000.0,0003.30,0002.03,0001.79
2022-12-15 08:13:00,,0819.5,5.00,0.00,22.0,20.3,00.0,30.9,23.7,05.8,0000.0,0002.49,0001.97,0001.74
2022-12-15 08:14:00,,0819.5,5.00,0.00,22.0,20.4,00.0,30.9,23.7,05.8,0000.0,0002.61,0001.96,0001.69
2022-12-15 08:15:00,,0819.6,5.01,0.00,22.0,21.3,00.0,30.9,23.9,05.8,0000.0,0002.63,0001.92,0001.64
2022-12-15 08:16:00,,0819.6,4.97,0.00,22.1,22.2,00.0,30.8,24.1,05.8,0000.0,0002.60,0001.90,0001.61
2022-12-15 08:17:00,,0819.6,5.03,0.00,22.2,22.1,00.0,30.9,24.2,05.8,0000.0,0002.61,0001.88,0001.60
2022-12-15 08:18:00,,0819.6,4.97,0.00,22.2,21.8,00.0,31.0,24.1,05.8,0000.0,0002.63,0001.87,0001.58
2022-12-15 08:19:00,,0819.6,5.02,0.00,22.2,21.5,00.0,31.0,24.1,05.8,0000.0,0002.66,0001.87,0001.57
2022-12-15 08:20:00,,0819.6,5.00,0.00,22.2,21.3,00.0,31.0,24.0,05.9,0000.0,0002.96,0001.88,0001.57
2022-12-15 08:21:00,,0819.6,4.99,0.00,22.2,21.1,00.0,31.0,24.0,05.9,0000.0,0003.40,0001.87,0001.57
2022-12-15 08:22:00,,0819.6,5.01,0.00,22.2,21.0,00.0,31.0,24.0,05.9,0000.0,0003.37,0001.86,0001.58
2022-12-15 08:23:00,,0819.7,5.01,0.00,22.2,20.9,00.0,31.0,23.9,05.9,0000.0,0003.30,0001.82,0001.57
2022-12-15 08:24:00,,0819.7,5.00,0.00,22.1,20.8,00.0,31.0,23.9,06.1,0000.0,0003.36,0001.82,0001.57
2022-12-15 08:25:00,,0819.6,5.01,0.00,22.1,20.8,00.0,31.0,23.9,07.1,0000.0,0003.45,0001.86,0001.62
2022-12-15 08:26:00,,0819.7,5.00,0.00,22.1,20.7,00.0,31.0,23.9,08.0,0000.0,0004.88,0002.05,0001.77
2022-12-15 08:27:00,,0819.7,5.01,0.00,22.1,20.7,00.0,31.0,23.9,08.3,0000.0,0005.29,0002.25,0001.93
2022-12-15 08:28:00,,0819.7,5.00,0.00,22.1,20.7,00.0,31.0,23.8,08.5,0000.0,0005.75,0002.46,0002.08
2022-12-15 08:29:00,,0819.7,4.97,0.00,22.1,20.7,00.0,30.9,23.8,08.5,0000.0,0006.14,0002.67,0002.24
2022-12-15 08:30:00,,0819.7,5.04,0.00,22.1,20.7,00.0,30.9,23.8,08.5,0000.0,0006.44,0002.89,0002.41
2022-12-15 08:31:00,,0819.6,4.95,0.00,22.1,21.1,00.0,30.9,23.9,08.5,0000.0,0006.42,0003.07,0002.56
2022-12-15 08:32:00,,0819.7,5.03,0.00,22.2,22.0,00.0,30.9,24.2,08.4,0000.0,0006.52,0003.21,0002.72
2022-12-15 08:33:00,,0819.7,4.97,0.00,22.3,22.4,00.0,30.9,24.3,08.3,0000.0,0007.32,0003.32,0002.85
2022-12-15 08:34:00,,0819.7,5.03,0.00,22.3,22.0,00.0,31.0,24.3,08.3,0000.0,0007.65,0003.47,0003.02
2022-12-15 08:35:00,,0819.7,4.97,0.00,22.3,21.7,00.0,31.0,24.2,08.3,0000.0,0008.24,0003.59,0003.16
2022-12-15 08:36:00,,0819.7,5.01,0.00,22.3,21.4,00.0,31.1,24.1,08.3,0000.0,0008.54,0003.70,0003.22
2022-12-15 08:37:00,,0819.8,5.00,0.00,22.3,21.2,00.0,31.1,24.1,08.4,0000.0,0008.50,0003.75,0003.23
2022-12-15 08:38:00,,0819.8,5.00,0.00,22.3,21.0,00.0,31.1,24.0,08.5,0000.0,0008.41,0003.76,0003.24
2022-12-15 08:39:00,,0819.8,5.01,0.00,22.2,20.9,00.0,31.1,24.0,08.6,0000.0,0008.39,0003.77,0003.24
2022-12-15 08:40:00,,0819.9,5.00,0.00,22.2,20.8,00.0,31.1,24.0,08.7,0000.0,0008.38,0003.78,0003.26
2022-12-15 08:41:00,,0819.8,5.00,0.00,22.2,20.7,00.0,31.1,24.0,08.7,0000.0,0008.59,0003.79,0003.28
2022-12-15 08:42:00,,0819.9,4.99,0.00,22.2,20.6,00.0,31.1,23.9,08.8,0000.0,0009.24,0003.81,0003.30
2022-12-15 08:43:00,,0819.8,5.00,0.00,22.1,20.6,00.0,31.0,23.9,08.8,0000.0,0009.86,0003.82,0003.32
2022-12-15 08:44:00,,0819.8,5.00,0.00,22.1,20.6,00.0,31.0,23.9,08.8,0000.0,0009.97,0003.83,0003.35
2022-12-15 08:45:00,,0819.8,5.00,0.00,22.1,20.7,00.0,31.0,23.9,08.8,0000.0,0009.99,0003.81,0003.36
2022-12-15 08:46:00,,0819.8,5.02,0.00,22.2,21.6,00.0,31.0,24.1,08.8,0000.0,0009.79,0003.83,0003.38
2022-12-15 08:47:00,,0819.8,4.97,0.00,22.3,22.4,00.0,31.0,24.3,08.7,0000.0,0010.12,0003.85,0003.42
2022-12-15 08:48:00,,0819.8,5.01,0.00,22.4,22.2,00.0,31.0,24.3,08.7,0000.0,0010.01,0003.83,0003.44
2022-12-15 08:49:00,,0819.8,5.00,0.00,22.4,21.8,00.0,31.1,24.3,08.7,0000.0,0010.53,0003.83,0003.45
2022-12-15 08:50:00,,0819.8,5.01,0.00,22.3,21.5,00.0,31.1,24.2,08.7,0000.0,0010.77,0003.85,0003.48
2022-12-15 08:51:00,,0819.8,4.97,0.00,22.3,21.3,00.0,31.1,24.1,08.7,0000.0,0010.75,0003.88,0003.48
2022-12-15 08:52:00,,0819.8,5.01,0.00,22.3,21.1,00.0,31.1,24.1,08.7,0000.0,0010.67,0003.92,0003.49
2022-12-15 08:53:00,,0819.8,5.00,0.00,22.3,21.0,00.0,31.1,24.1,08.8,0000.0,0010.64,0003.92,0003.49
2022-12-15 08:54:00,,0819.8,5.00,0.00,22.3,20.9,00.0,31.1,24.1,08.8,0000.0,0010.73,0003.95,0003.50
2022-12-15 08:55:00,,0819.8,5.00,0.00,22.2,20.8,00.0,31.1,24.0,08.8,0000.0,0011.16,0004.00,0003.52
2022-12-15 08:56:00,,0819.8,5.01,0.00,22.2,20.7,00.0,31.1,24.0,08.8,0000.0,0011.39,0004.01,0003.54
2022-12-15 08:57:00,,0819.8,5.00,0.00,22.2,20.7,00.0,31.1,23.9,08.8,0000.0,0011.88,0004.03,0003.56
2022-12-15 08:58:00,,0819.8,5.00,0.00,22.2,20.6,00.0,31.1,23.9,08.8,0000.0,0011.58,0004.03,0003.57
2022-12-15 08:59:00,,0819.9,4.97,0.00,22.2,20.6,00.0,31.1,23.9,08.8,0000.0,0011.29,0004.04,0003.60
